CW9193 Weather Reports


Display with metric or nautical units.
time (UTC)temp
F
wind
direction
speed
MPH
gust
MPH
rain 1hr
in
rain 24hr
in
rain mn
in
humidity
%
barometer
mb
20260502233031 41 172 0.0 0.0 0.00 0.00 0.00 57 1012.6
20260502231534 43 179 0.0 0.0 0.00 0.00 0.00 49 1012.7
20260502230029 44 189 0.0 0.0 0.00 0.00 0.00 48 1012.7
20260502223030 50 91 0.0 0.0 0.00 0.00 0.00 30 1012.9
20260502221525 49 118 0.0 0.0 0.00 0.00 0.00 31 1012.9
20260502220024 50 124 0.0 0.0 0.00 0.00 0.00 31 1013.1
20260502213022 50 339 0.0 0.0 0.00 0.00 0.00 30 1013.3
20260502211529 50 104 0.0 0.0 0.00 0.00 0.00 30 1013.5
20260502210020 50 24 0.0 0.0 0.00 0.00 0.00 31 1013.6
20260502203019 50 254 0.0 0.0 0.00 0.00 0.00 30 1014.0
20260502201518 50 114 0.0 0.0 0.00 0.00 0.00 29 1014.2
20260502200015 50 138 0.0 0.0 0.00 0.00 0.00 30 1014.3
20260502193013 50 95 0.0 0.0 0.00 0.00 0.00 30 1014.6
20260502191510 50 56 0.0 0.0 0.00 0.00 0.00 29 1014.8
20260502190010 49 355 0.0 0.0 0.00 0.00 0.00 31 1014.9
20260502183010 50 103 0.0 0.0 0.00 0.00 0.00 30 1015.0
20260502181508 50 103 0.0 0.0 0.00 0.00 0.00 31 1015.1
20260502170106 47 142 0.0 0.0 0.00 0.00 0.00 37 1015.5
20260502163056 43 298 0.0 0.0 0.00 0.00 0.00 64 1015.6
20260502161549 43 252 0.0 0.0 0.00 0.00 0.00 67 1015.8
20260502151558 44 212 0.0 0.0 0.00 0.00 0.00 55 1015.9
20260502123012 35 124 0.0 0.0 0.00 0.00 0.00 85 1016.5
20260502121516 34 117 0.0 0.0 0.00 0.00 0.00 86 1016.4
20260502114610 30 75 0.0 0.0 0.00 0.00 0.00 87 1016.5
20260502113010 29 75 0.0 0.0 0.00 0.00 0.00 87 1016.5
20260502111510 28 74 0.0 0.0 0.00 0.00 0.00 87 1016.3
20260502110011 27 72 0.0 0.0 0.00 0.00 0.00 87 1016.3
20260502104609 27 72 0.0 0.0 0.00 0.00 0.00 87 1016.3
20260502103009 27 72 0.0 0.0 0.00 0.00 0.00 87 1016.3
20260502101508 27 72 0.0 0.0 0.00 0.00 0.00 87 1016.3
20260502091505 28 72 0.0 0.0 0.00 0.00 0.00 87 1016.0
20260502071502 28 83 0.0 0.0 0.00 0.00 0.00 88 1015.9
20260502070002 28 80 0.0 0.0 0.00 0.00 0.00 87 1016.0
20260502064626 28 97 0.0 0.0 0.00 0.00 0.00 88 1016.0
20260502063102 28 97 0.0 0.0 0.00 0.00 0.00 87 1016.1
20260502061600 28 97 0.0 0.0 0.00 0.00 0.00 87 1016.2
20260502060059 28 97 0.0 0.0 0.00 0.00 0.00 88 1016.1
20260502054605 29 97 0.0 0.0 0.00 0.00 0.00 88 1016.2
20260502053057 29 97 0.0 0.0 0.00 0.00 0.00 88 1016.4
20260502051557 29 97 0.0 0.0 0.00 0.00 0.00 88 1016.4
20260502050056 29 97 0.0 0.0 0.00 0.00 0.00 87 1016.5
20260502044559 29 103 0.0 0.0 0.00 0.00 0.00 88 1016.5
20260502043055 29 103 0.0 0.0 0.00 0.00 0.00 87 1016.5
20260502041601 29 103 0.0 0.0 0.00 0.00 0.00 87 1016.6
20260502040056 29 105 0.0 0.0 0.00 0.00 0.00 87 1016.7
20260502034553 30 105 0.0 0.0 0.00 0.00 0.00 87 1016.7
20260502033100 30 105 0.0 0.0 0.00 0.00 0.00 87 1016.8
20260502031557 30 105 0.0 0.0 0.00 0.00 0.00 86 1016.8
20260502030052 31 105 0.0 0.0 0.00 0.00 0.00 85 1016.9
20260502024604 31 106 0.0 0.0 0.00 0.00 0.00 85 1017.0
20260502023103 32 105 0.0 0.0 0.00 0.00 0.00 84 1017.0
20260502021543 32 106 0.0 0.0 0.00 0.00 0.00 83 1017.0
20260502020041 32 104 0.0 0.0 0.00 0.00 0.00 81 1017.0
20260502014539 33 110 0.0 0.0 0.00 0.00 0.00 79 1017.0
20260502013037 33 101 0.0 0.0 0.00 0.00 0.00 78 1016.9
20260502011535 34 98 0.0 0.0 0.00 0.00 0.00 75 1016.7
20260502010035 34 85 0.0 0.0 0.00 0.00 0.00 73 1016.6
20260502004532 35 81 0.0 0.0 0.00 0.00 0.00 70 1016.5
20260502003029 35 95 0.0 0.0 0.00 0.00 0.00 69 1016.5
20260502001531 36 92 0.0 0.0 0.00 0.00 0.00 67 1016.4
20260502000046 36 114 0.0 0.0 0.00 0.00 0.00 66 1016.4
20260501234532 37 152 0.0 0.0 0.00 0.00 0.00 63 1016.3